Погода в Анохино

Россия / Владимирская область     56°12′00″N   41°13′17″E
темп.,
°C
ветер,
м/с
пор.,
м/с
влажн.,
%
обл.,
%
осадки,
мм/ч
давл.,
гПа
погр.,
м
14 апреля, ср
ср1400:00+11ююв4136246 0.0 1025238
03:00+9ююв311707 0.0 1024188
06:00+9ююв3117253 0.0 1023200
09:00+15ю485289 0.0 1023370
12:00+19ю573434 0.0 10221179
15:00+20ю5728100 0.0 10201765
18:00+16ююв3743100 0.0 1019158
21:00+12ююв2456100 0.0 102045
15 апреля, чт
чт1500:00+10ююв2260100 0.0 101916
03:00+9ююв226690 0.0 101912
06:00+8ююв1170100 0.0 101912
09:00+14вюв125190 0.0 1019249
12:00+18всв2238100 0.0 10181003
15:00+19св3332100 0.0 10182125
18:00+15св5955100 0.0 1019574
21:00+9св51283100 0.0 1021455
16 апреля, пт
пт1600:00+7св51286100 0.0 1022467
03:00+6св51287100 0.0 1023462
06:00+5всв51386100 0.0 1024492
09:00+8всв61070100 0.0 1025575
12:00+12всв685755 0.0 1025959
15:00+13всв6751100 0.0 10251297
18:00+12всв585796 0.0 10251042
21:00+8всв5126465 0.0 1026516
17 апреля, сб
сб1700:00+6всв5126417 0.0 1027422
03:00+4всв4126912 0.0 1028381
06:00+3всв413665 0.0 1029423
09:00+8всв510459 0.0 1029691
12:00+12всв68326 0.0 10291252
15:00+13всв67325 0.0 10281473
18:00+11всв48410 0.0 1028892
21:00+6св310610 0.0 1029196
18 апреля, вс
вс1800:00+4всв39690 0.0 1030176
03:00+3всв37770 0.0 1030126
06:00+2всв27790 0.0 1031158
09:00+9всв36540 0.0 1030559
12:00+12всв46395 0.0 10301594
15:00+13всв563818 0.0 10291821
18:00+11всв374993 0.0 1030710
21:00+7св266699 0.0 1030113